User: anonymous   Login
Location: *
(42.0175°N, 9.4056°E)
Time: 22:16:36
(UTC+00:00)
Language:

Mayak - Orbit

View from above orbital plane
View from above orbital plane
View from above satellite
View from above satellite

Ground track
Ground track

The orbit data is extracted from the following two-line orbital elements,

1 42830U 17042F   19294.48160229  .00000496  00000-0  54282-4 0  9992
2 42830  97.5517 182.9379 0014648   6.1971 353.9427 14.91923375123574
Epoch (UTC): 21 October 2019 11:33:30
Eccentricity: 0.0014648
inclination: 97.5517°
perigee height: 582 km
apogee height: 602 km
right ascension of ascending node: 182.9379°
argument of perigee: 6.1971°
revolutions per day: 14.91923375
mean anomaly at epoch: 353.9427°
orbit number at epoch: 12357

The dashed part of the orbit path shows where the satellite is in the earth's shadow,  

DLR